| time (UTC) | temp C | wind direction | speed KPH | gust KPH | rain 1hr cm | rain 24hr cm | rain mn cm | humidity % | barometer mb |
| 20260502231246 | 15 | 260 | 1.6 | 4.8 | 0.00 | 0.03 | 0.00 | 76 | 1013.7 |
| 20260502230231 | 14 | 260 | 1.6 | 6.4 | 0.00 | 0.03 | 0.00 | 77 | 1013.8 |
| 20260502225213 | 14 | 260 | 1.6 | 6.4 | 0.00 | 0.03 | 0.00 | 77 | 1013.7 |
| 20260502224207 | 14 | 260 | 0.0 | 3.2 | 0.00 | 0.03 | 0.00 | 75 | 1013.5 |
| 20260502223207 | 15 | 260 | 0.0 | 0.0 | 0.00 | 0.03 | 0.00 | 74 | 1012.9 |
| 20260502222206 | 15 | 260 | 0.0 | 3.2 | 0.00 | 0.03 | 0.00 | 74 | 1012.7 |
| 20260502221219 | 15 | 260 | 0.0 | 6.4 | 0.00 | 0.03 | 0.00 | 73 | 1012.6 |
| 20260502220206 | 15 | 260 | 0.0 | 1.6 | 0.00 | 0.03 | 0.00 | 72 | 1012.7 |
| 20260502215156 | 15 | 260 | 0.0 | 0.0 | 0.00 | 0.03 | 0.03 | 72 | 1012.7 |
| 20260502214152 | 15 | 260 | 0.0 | 3.2 | 0.00 | 0.03 | 0.03 | 71 | 1013.0 |
| 20260502213123 | 15 | 260 | 0.0 | 3.2 | 0.00 | 0.03 | 0.03 | 71 | 1013.0 |
| 20260502212631 | 15 | 260 | 0.0 | 1.6 | 0.00 | 0.03 | 0.03 | 70 | 1013.4 |
| 20260502212525 | 16 | 260 | 1.6 | 4.8 | 0.00 | 0.03 | 0.03 | 69 | 1013.7 |
| 20260502210115 | 16 | 260 | 1.6 | 4.8 | 0.00 | 0.03 | 0.03 | 69 | 1013.2 |
| 20260502205107 | 16 | 261 | 0.0 | 3.2 | 0.00 | 0.03 | 0.03 | 68 | 1013.4 |
| 20260502204030 | 16 | 261 | 0.0 | 3.2 | 0.00 | 0.03 | 0.03 | 67 | 1013.4 |
| 20260502202958 | 16 | 261 | 0.0 | 1.6 | 0.00 | 0.03 | 0.03 | 66 | 1013.3 |
| 20260502202327 | 16 | 261 | 0.0 | 1.6 | 0.00 | 0.03 | 0.03 | 64 | 1013.6 |
| 20260502201952 | 16 | 261 | 0.0 | 3.2 | 0.00 | 0.03 | 0.03 | 65 | 1013.3 |
| 20260502195842 | 16 | 261 | 0.0 | 0.0 | 0.00 | 0.03 | 0.03 | 64 | 1013.6 |
| 20260502194837 | 17 | 261 | 0.0 | 0.0 | 0.00 | 0.03 | 0.03 | 64 | 1013.7 |
| 20260502193759 | 17 | 261 | 0.0 | 0.0 | 0.00 | 0.03 | 0.03 | 64 | 1013.8 |
| 20260502192723 | 17 | 261 | 0.0 | 1.6 | 0.00 | 0.03 | 0.03 | 64 | 1013.8 |
| 20260502192127 | 17 | 261 | 0.0 | 1.6 | 0.00 | 0.03 | 0.03 | 67 | 1013.7 |
| 20260502191757 | 17 | 261 | 0.0 | 1.6 | 0.00 | 0.03 | 0.03 | 66 | 1013.7 |
| 20260502185720 | 17 | 261 | 0.0 | 1.6 | 0.00 | 0.03 | 0.03 | 69 | 1013.5 |
| 20260502184708 | 18 | 261 | 0.0 | 0.0 | 0.00 | 0.03 | 0.03 | 67 | 1013.7 |
| 20260502183703 | 18 | 261 | 0.0 | 0.0 | 0.00 | 0.03 | 0.03 | 66 | 1013.7 |
| 20260502183035 | 19 | 261 | 0.0 | 4.8 | 0.00 | 0.03 | 0.03 | 64 | 1013.5 |
| 20260502182653 | 18 | 261 | 0.0 | 1.6 | 0.00 | 0.03 | 0.03 | 65 | 1013.6 |
| 20260502180620 | 20 | 261 | 0.0 | 4.8 | 0.00 | 0.03 | 0.03 | 63 | 1013.7 |
| 20260502163443 | 22 | 261 | 3.2 | 12.9 | 0.00 | 0.03 | 0.03 | 60 | 1014.1 |
| 20260502162901 | 22 | 258 | 3.2 | 9.7 | 0.00 | 0.03 | 0.03 | 57 | 1014.1 |
| 20260502162734 | 22 | 258 | 3.2 | 9.7 | 0.00 | 0.03 | 0.03 | 58 | 1014.2 |
| 20260502162528 | 22 | 263 | 3.2 | 12.9 | 0.00 | 0.03 | 0.03 | 58 | 1014.2 |
| 20260502151422 | 23 | 253 | 3.2 | 12.9 | 0.00 | 0.03 | 0.03 | 58 | 1014.6 |
| 20260502150404 | 23 | 267 | 3.2 | 9.7 | 0.00 | 0.03 | 0.03 | 58 | 1014.7 |
| 20260502130243 | 21 | 261 | 8.0 | 17.7 | 0.00 | 0.03 | 0.03 | 63 | 1015.9 |
| 20260502123204 | 22 | 270 | 8.0 | 17.7 | 0.00 | 0.03 | 0.03 | 59 | 1016.2 |
| 20260502122650 | 21 | 263 | 8.0 | 17.7 | 0.00 | 0.03 | 0.03 | 60 | 1016.2 |
| 20260502121216 | 22 | 248 | 4.8 | 12.9 | 0.00 | 0.03 | 0.03 | 60 | 1016.3 |
| 20260502120133 | 22 | 253 | 6.4 | 14.5 | 0.00 | 0.03 | 0.03 | 60 | 1016.3 |
| 20260502115104 | 22 | 282 | 6.4 | 16.1 | 0.00 | 0.03 | 0.03 | 60 | 1016.5 |
| 20260502114056 | 21 | 259 | 8.0 | 16.1 | 0.00 | 0.03 | 0.03 | 59 | 1016.6 |
| 20260502113032 | 22 | 259 | 4.8 | 12.9 | 0.00 | 0.03 | 0.03 | 59 | 1016.6 |
| 20260502112430 | 21 | 248 | 6.4 | 19.3 | 0.00 | 0.03 | 0.03 | 60 | 1016.7 |
| 20260502112102 | 22 | 265 | 4.8 | 14.5 | 0.00 | 0.03 | 0.03 | 58 | 1016.7 |
| 20260502110024 | 21 | 272 | 6.4 | 14.5 | 0.00 | 0.03 | 0.03 | 61 | 1016.7 |
| 20260502104954 | 21 | 266 | 4.8 | 11.3 | 0.00 | 0.03 | 0.03 | 61 | 1016.7 |
| 20260502104322 | 21 | 270 | 4.8 | 9.7 | 0.00 | 0.03 | 0.03 | 56 | 1016.8 |
| 20260502104004 | 21 | 266 | 6.4 | 12.9 | 0.00 | 0.03 | 0.03 | 62 | 1016.9 |
| 20260502101910 | 21 | 236 | 3.2 | 11.3 | 0.00 | 0.03 | 0.03 | 51 | 1016.9 |
| 20260502100907 | 21 | 225 | 1.6 | 11.3 | 0.00 | 0.03 | 0.03 | 53 | 1016.8 |
| 20260502090809 | 17 | 231 | 0.0 | 3.2 | 0.00 | 0.03 | 0.03 | 64 | 1017.2 |
| 20260502090254 | 16 | 231 | 1.6 | 4.8 | 0.03 | 0.03 | 0.03 | 64 | 1017.3 |
| 20260502090129 | 15 | 231 | 1.6 | 4.8 | 0.03 | 0.03 | 0.03 | 73 | 1017.4 |
| 20260502071527 | 17 | 231 | 4.8 | 9.7 | 0.00 | 0.00 | 0.00 | 46 | 1017.4 |
| 20260502070501 | 17 | 232 | 4.8 | 11.3 | 0.00 | 0.00 | 0.00 | 48 | 1017.5 |
| 20260502065446 | 17 | 238 | 3.2 | 11.3 | 0.00 | 0.00 | 0.00 | 47 | 1017.6 |
| 20260502064434 | 16 | 226 | 3.2 | 9.7 | 0.00 | 0.00 | 0.00 | 52 | 1017.6 |
| 20260502063409 | 16 | 226 | 1.6 | 4.8 | 0.00 | 0.00 | 0.00 | 54 | 1017.7 |
| 20260502062354 | 15 | 226 | 0.0 | 0.0 | 0.00 | 0.00 | 0.00 | 55 | 1017.5 |
| 20260502061344 | 15 | 226 | 0.0 | 0.0 | 0.00 | 0.00 | 0.00 | 56 | 1017.6 |
| 20260502060332 | 13 | 226 | 0.0 | 4.8 | 0.00 | 0.00 | 0.00 | 58 | 1017.5 |
| 20260502055335 | 13 | 226 | 1.6 | 4.8 | 0.00 | 0.00 | 0.00 | 59 | 1017.3 |
| 20260502054320 | 13 | 226 | 0.0 | 3.2 | 0.00 | 0.00 | 0.00 | 58 | 1017.3 |
| 20260502053724 | 10 | 226 | 0.0 | 4.8 | 0.00 | 0.00 | 0.00 | 68 | 1017.3 |
| 20260502053407 | 12 | 226 | 0.0 | 3.2 | 0.00 | 0.00 | 0.00 | 63 | 1017.3 |
| 20260502051253 | 8 | 226 | 0.0 | 1.6 | 0.00 | 0.00 | 0.00 | 73 | 1017.4 |
| 20260502050224 | 8 | 226 | 0.0 | 0.0 | 0.00 | 0.00 | 0.00 | 73 | 1017.5 |
| 20260502045213 | 8 | 226 | 0.0 | 0.0 | 0.00 | 0.00 | 0.00 | 73 | 1017.4 |
| 20260502044143 | 7 | 226 | 0.0 | 0.0 | 0.00 | 0.00 | 0.00 | 73 | 1017.6 |
| 20260502043647 | 7 | 226 | 0.0 | 1.6 | 0.00 | 0.00 | 0.00 | 73 | 1017.6 |
| 20260502043530 | 8 | 226 | 0.0 | 0.0 | 0.00 | 0.00 | 0.00 | 71 | 1017.5 |
| 20260502043320 | 7 | 226 | 0.0 | 0.0 | 0.00 | 0.00 | 0.00 | 72 | 1017.5 |
| 20260502035040 | 8 | 226 | 0.0 | 0.0 | 0.00 | 0.00 | 0.00 | 70 | 1017.7 |
| 20260502034402 | 9 | 226 | 0.0 | 0.0 | 0.00 | 0.00 | 0.00 | 67 | 1017.9 |
| 20260502034033 | 8 | 226 | 0.0 | 0.0 | 0.00 | 0.00 | 0.00 | 69 | 1017.8 |
| 20260502031959 | 9 | 226 | 0.0 | 0.0 | 0.00 | 0.00 | 0.00 | 67 | 1017.9 |
| 20260502030927 | 9 | 226 | 0.0 | 0.0 | 0.00 | 0.00 | 0.00 | 67 | 1018.0 |
| 20260502025912 | 9 | 226 | 0.0 | 1.6 | 0.00 | 0.00 | 0.00 | 65 | 1018.1 |
| 20260502024854 | 11 | 226 | 0.0 | 1.6 | 0.00 | 0.00 | 0.00 | 62 | 1018.1 |
| 20260502023834 | 10 | 226 | 0.0 | 3.2 | 0.00 | 0.00 | 0.00 | 62 | 1018.1 |
| 20260502022817 | 10 | 226 | 0.0 | 1.6 | 0.00 | 0.00 | 0.00 | 63 | 1018.2 |
| 20260502021815 | 10 | 226 | 0.0 | 1.6 | 0.00 | 0.00 | 0.00 | 62 | 1018.2 |
| 20260502020802 | 10 | 226 | 0.0 | 1.6 | 0.00 | 0.00 | 0.00 | 61 | 1018.2 |
| 20260502020714 | 11 | 226 | 0.0 | 1.6 | 0.00 | 0.00 | 0.00 | 61 | 1018.3 |
| 20260502014749 | 11 | 226 | 0.0 | 0.0 | 0.00 | 0.00 | 0.00 | 59 | 1018.3 |
| 20260502013745 | 11 | 226 | 0.0 | 1.6 | 0.00 | 0.00 | 0.00 | 59 | 1018.4 |
| 20260502012720 | 11 | 226 | 0.0 | 1.6 | 0.00 | 0.00 | 0.00 | 59 | 1018.5 |
| 20260502011725 | 11 | 226 | 0.0 | 1.6 | 0.00 | 0.00 | 0.00 | 58 | 1018.6 |
| 20260502010708 | 11 | 226 | 0.0 | 1.6 | 0.00 | 0.00 | 0.00 | 58 | 1018.7 |
| 20260502005645 | 12 | 226 | 0.0 | 0.0 | 0.00 | 0.00 | 0.00 | 56 | 1018.8 |
| 20260502004626 | 12 | 226 | 0.0 | 3.2 | 0.00 | 0.00 | 0.00 | 55 | 1018.9 |
| 20260502003556 | 13 | 226 | 0.0 | 1.6 | 0.00 | 0.00 | 0.00 | 53 | 1019.0 |
| 20260502002556 | 13 | 226 | 0.0 | 3.2 | 0.00 | 0.00 | 0.00 | 54 | 1019.1 |
| 20260502001554 | 13 | 226 | 0.0 | 3.2 | 0.00 | 0.00 | 0.00 | 54 | 1019.2 |
| 20260502000603 | 12 | 226 | 0.0 | 3.2 | 0.00 | 0.00 | 0.00 | 55 | 1019.2 |
| 20260501235552 | 12 | 226 | 0.0 | 1.6 | 0.00 | 0.00 | 0.00 | 57 | 1019.4 |
| 20260501234552 | 12 | 226 | 0.0 | 3.2 | 0.00 | 0.00 | 0.00 | 57 | 1019.4 |
| 20260501233548 | 12 | 226 | 0.0 | 1.6 | 0.00 | 0.00 | 0.00 | 57 | 1019.5 |
| 20260501232547 | 12 | 226 | 0.0 | 3.2 | 0.00 | 0.00 | 0.00 | 57 | 1019.6 |